TimeEST,TemperatureF,Dew PointF,Humidity,Sea Level PressureIn,VisibilityMPH,Wind Direction,Wind SpeedMPH,Gust SpeedMPH,PrecipitationIn,Events,Conditions,WindDirDegrees,DateUTC
12:15 AM,64.4,62.6,94,30.28,10.0,Calm,Calm,-,N/A,,Clear,0,2013-01-11 05:15:00
12:35 AM,62.6,62.6,100,30.28,10.0,Calm,Calm,-,N/A,,Clear,0,2013-01-11 05:35:00
12:55 AM,62.6,62.6,100,30.28,10.0,Calm,Calm,-,N/A,,Clear,0,2013-01-11 05:55:00
1:15 AM,62.6,60.8,94,30.27,7.0,Calm,Calm,-,N/A,,Clear,0,2013-01-11 06:15:00
1:35 AM,62.6,60.8,94,30.27,7.0,Calm,Calm,-,N/A,,Clear,0,2013-01-11 06:35:00
1:55 AM,60.8,60.8,100,30.27,7.0,Calm,Calm,-,N/A,,Scattered Clouds,0,2013-01-11 06:55:00
2:15 AM,60.8,60.8,100,30.27,5.0,Calm,Calm,-,N/A,,Mostly Cloudy,0,2013-01-11 07:15:00
2:35 AM,60.8,60.8,100,30.27,7.0,Calm,Calm,-,N/A,,Scattered Clouds,0,2013-01-11 07:35:00
2:55 AM,60.8,60.8,100,30.27,7.0,Calm,Calm,-,N/A,,Scattered Clouds,0,2013-01-11 07:55:00
3:15 AM,59.0,59.0,100,30.26,5.0,Calm,Calm,-,N/A,,Scattered Clouds,0,2013-01-11 08:15:00
3:35 AM,60.8,59.0,94,30.26,5.0,Calm,Calm,-,N/A,,Clear,0,2013-01-11 08:35:00
3:55 AM,60.8,60.8,100,30.25,5.0,Calm,Calm,-,N/A,,Clear,0,2013-01-11 08:55:00
4:15 AM,60.8,60.8,100,30.24,5.0,Calm,Calm,-,N/A,,Clear,0,2013-01-11 09:15:00
4:35 AM,60.8,60.8,100,30.24,2.5,Calm,Calm,-,N/A,,Clear,0,2013-01-11 09:35:00
4:55 AM,59.0,59.0,100,30.24,2.0,Calm,Calm,-,N/A,,Scattered Clouds,0,2013-01-11 09:55:00
5:15 AM,60.8,59.0,94,30.23,4.0,Calm,Calm,-,N/A,,Clear,0,2013-01-11 10:15:00
5:35 AM,60.8,59.0,94,30.23,1.0,Calm,Calm,-,N/A,,Mist,0,2013-01-11 10:35:00
5:55 AM,59.0,59.0,100,30.24,3.0,Calm,Calm,-,N/A,,Clear,0,2013-01-11 10:55:00
6:15 AM,59.0,59.0,100,30.24,4.0,Calm,Calm,-,N/A,,Clear,0,2013-01-11 11:15:00
6:35 AM,59.0,59.0,100,30.24,0.5,Calm,Calm,-,N/A,Fog,Fog,0,2013-01-11 11:35:00
6:55 AM,57.2,57.2,100,30.24,0.8,Calm,Calm,-,N/A,,Mostly Cloudy,0,2013-01-11 11:55:00
7:15 AM,57.2,57.2,100,30.25,7.0,Calm,Calm,-,N/A,,Scattered Clouds,0,2013-01-11 12:15:00
7:35 AM,59.0,59.0,100,30.25,5.0,Calm,Calm,-,N/A,,Mostly Cloudy,0,2013-01-11 12:35:00
7:55 AM,57.2,57.2,100,30.25,0.8,Calm,Calm,-,N/A,,Overcast,0,2013-01-11 12:55:00
8:15 AM,60.8,60.8,100,30.26,4.0,Calm,Calm,-,N/A,,Scattered Clouds,0,2013-01-11 13:15:00
8:35 AM,62.6,62.6,100,30.25,5.0,SSE,3.5,-,N/A,,Clear,160,2013-01-11 13:35:00
8:55 AM,66.2,66.2,100,30.26,10.0,SSE,3.5,-,N/A,,Clear,160,2013-01-11 13:55:00
9:15 AM,69.8,64.4,83,30.27,10.0,SSE,4.6,-,N/A,,Clear,160,2013-01-11 14:15:00
9:35 AM,71.6,66.2,83,30.27,10.0,SSE,5.8,-,N/A,,Clear,160,2013-01-11 14:35:00
9:55 AM,73.4,66.2,78,30.27,10.0,SE,6.9,-,N/A,,Clear,140,2013-01-11 14:55:00
10:15 AM,75.2,66.2,73,30.26,10.0,SSE,11.5,-,N/A,,Clear,150,2013-01-11 15:15:00
10:35 AM,77.0,62.6,61,30.26,10.0,SSE,10.4,16.1,N/A,,Clear,150,2013-01-11 15:35:00
10:55 AM,78.8,60.8,54,30.24,10.0,SSE,10.4,-,N/A,,Clear,160,2013-01-11 15:55:00
11:15 AM,80.6,59.0,48,30.24,10.0,South,12.7,20.7,N/A,,Clear,180,2013-01-11 16:15:00
11:35 AM,80.6,60.8,51,30.23,10.0,SE,10.4,16.1,N/A,,Clear,140,2013-01-11 16:35:00
11:55 AM,80.6,59.0,48,30.22,10.0,SSE,10.4,23.0,N/A,,Scattered Clouds,160,2013-01-11 16:55:00
12:15 PM,82.4,59.0,45,30.22,10.0,South,13.8,17.3,N/A,,Clear,190,2013-01-11 17:15:00
12:35 PM,82.4,59.0,45,30.21,10.0,SSE,15.0,20.7,N/A,,Clear,150,2013-01-11 17:35:00
12:55 PM,82.4,59.0,45,30.20,10.0,SSE,11.5,16.1,N/A,,Clear,150,2013-01-11 17:55:00
1:15 PM,82.4,59.0,45,30.19,10.0,South,10.4,19.6,N/A,,Scattered Clouds,170,2013-01-11 18:15:00
1:35 PM,82.4,59.0,45,30.18,10.0,South,10.4,-,N/A,,Scattered Clouds,170,2013-01-11 18:35:00
1:55 PM,82.4,59.0,45,30.18,10.0,SSE,10.4,-,N/A,,Scattered Clouds,160,2013-01-11 18:55:00
2:15 PM,82.4,59.0,45,30.17,10.0,SSE,9.2,-,N/A,,Scattered Clouds,150,2013-01-11 19:15:00
2:55 PM,80.6,59.0,48,30.17,10.0,South,8.1,-,N/A,,Clear,170,2013-01-11 19:55:00
3:15 PM,82.4,59.0,45,30.17,10.0,South,6.9,-,N/A,,Clear,170,2013-01-11 20:15:00
3:35 PM,82.4,59.0,45,30.17,10.0,South,6.9,-,N/A,,Clear,170,2013-01-11 20:35:00
3:55 PM,82.4,60.8,48,30.17,10.0,SE,5.8,-,N/A,,Clear,140,2013-01-11 20:55:00
4:15 PM,82.4,60.8,48,30.17,10.0,ESE,5.8,-,N/A,,Clear,120,2013-01-11 21:15:00
4:35 PM,80.6,60.8,51,30.16,10.0,SSE,5.8,-,N/A,,Clear,160,2013-01-11 21:35:00
4:55 PM,80.6,60.8,51,30.17,10.0,SE,3.5,-,N/A,,Clear,140,2013-01-11 21:55:00
5:15 PM,80.6,60.8,51,30.17,10.0,ESE,3.5,-,N/A,,Clear,120,2013-01-11 22:15:00
5:35 PM,78.8,62.6,57,30.17,10.0,Calm,Calm,-,N/A,,Clear,0,2013-01-11 22:35:00
5:55 PM,73.4,62.6,69,30.17,10.0,Calm,Calm,-,N/A,,Clear,0,2013-01-11 22:55:00
6:15 PM,71.6,62.6,73,30.17,10.0,Calm,Calm,-,N/A,,Clear,0,2013-01-11 23:15:00
6:35 PM,69.8,62.6,78,30.17,10.0,Calm,Calm,-,N/A,,Clear,0,2013-01-11 23:35:00
6:55 PM,69.8,62.6,78,30.18,10.0,Calm,Calm,-,N/A,,Clear,0,2013-01-11 23:55:00
7:15 PM,68.0,62.6,83,30.18,10.0,Calm,Calm,-,N/A,,Clear,0,2013-01-12 00:15:00
7:35 PM,68.0,62.6,83,30.18,10.0,Calm,Calm,-,N/A,,Clear,0,2013-01-12 00:35:00
7:55 PM,68.0,62.6,83,30.19,10.0,Calm,Calm,-,N/A,,Clear,0,2013-01-12 00:55:00
8:15 PM,68.0,62.6,83,30.19,10.0,Calm,Calm,-,N/A,,Clear,0,2013-01-12 01:15:00
8:35 PM,68.0,62.6,83,30.19,10.0,Calm,Calm,-,N/A,,Clear,0,2013-01-12 01:35:00
8:55 PM,66.2,62.6,88,30.19,10.0,Calm,Calm,-,N/A,,Clear,0,2013-01-12 01:55:00
9:15 PM,64.4,62.6,94,30.19,10.0,Calm,Calm,-,N/A,,Clear,0,2013-01-12 02:15:00
9:35 PM,64.4,62.6,94,30.19,10.0,Calm,Calm,-,N/A,,Clear,0,2013-01-12 02:35:00
10:15 PM,64.4,62.6,94,30.20,10.0,Calm,Calm,-,N/A,,Clear,0,2013-01-12 03:15:00
10:35 PM,64.4,62.6,94,30.21,10.0,Calm,Calm,-,N/A,,Clear,0,2013-01-12 03:35:00
10:55 PM,62.6,62.6,100,30.21,10.0,Calm,Calm,-,N/A,,Clear,0,2013-01-12 03:55:00
11:15 PM,62.6,60.8,94,30.21,7.0,Calm,Calm,-,N/A,,Clear,0,2013-01-12 04:15:00
11:35 PM,60.8,60.8,100,30.22,5.0,Calm,Calm,-,N/A,,Clear,0,2013-01-12 04:35:00
11:55 PM,60.8,60.8,100,30.21,5.0,Calm,Calm,-,N/A,,Clear,0,2013-01-12 04:55:00